Flag for Ecuador Weather past 2 weeks in Guayaquil, Ecuador

Now
75 °F

Passing clouds.


Feels Like: 75 °F
Forecast: 73 / 89 °F
Wind: 13 mph from Southwest

Location: Guayaquil / Simon Bolivar

Current Time: Oct 21, 2014 at 11:32:02 PM

Latest Report: Oct 21, 2014 at 11:00 PM


Visibility: N/A

Pressure: 29.89 "Hg

Humidity: 83%

Dew point: 70 °F

Location of GuayaquilLocation

Historic Weather in Guayaquil — Graph

°F

Guayaquil temperature yesterday

Maximum temperature yesterday: 86 °F (at 1:00 PM)
Minimum temperature yesterday: 75 °F (at 12:00 AM)
Average temperature yesterday: 79 °F

Past Weeks' High & Low Weather Summary

 TemperatureHumidityPressure
High93 °F (Oct 18, 1:00 PM)94% (Oct 11, 8:00 AM)29.95 "Hg (Oct 11, 8:00 AM)
Low70 °F (Oct 12, 2:00 AM)47% (Oct 18, 1:00 PM)29.74 "Hg (Oct 10, 3:00 PM)
Average78 °F72%29.86 "Hg
* Reported Oct 7 3:00 PM — Oct 21 10:00 PM, Guayaquil, Weather by CustomWeather, © 2014

Note: Actual official high and low records may vary slightly from our data, if they occured in-between our weather recording intervals... More about our weather records

Advertising

Guayaquil weather history for previous 24 hours

 ConditionsComfort  
Time TempWeatherWind HumidityBarometerVisibility
10:00 PM
Oct 21
75 °FPassing clouds.15 mph83%29.86 "HgN/A
9:00 PM77 °FPassing clouds.13 mph79%29.83 "HgN/A
8:00 PM77 °FPassing clouds.17 mph79%29.80 "HgN/A
7:00 PM81 °FPassing clouds.15 mph70%29.77 "HgN/A
6:00 PM81 °FScattered clouds.13 mph74%29.77 "HgN/A
5:00 PM84 °FScattered clouds.9 mph66%29.74 "HgN/A
4:00 PM86 °FScattered clouds.10 mph62%29.74 "HgN/A
3:00 PM86 °FPartly sunny.9 mph62%29.74 "HgN/A
2:00 PM88 °FPartly sunny.10 mph59%29.77 "HgN/A
1:00 PM84 °FPartly sunny.9 mph66%29.80 "HgN/A
12:00 PM86 °FPartly sunny.10 mph62%29.83 "HgN/A
11:00 AM84 °FScattered clouds.9 mph66%29.86 "HgN/A
10:00 AM81 °FPartly sunny.8 mph70%29.89 "HgN/A
9:00 AM79 °FPartly sunny.10 mph74%29.89 "HgN/A
8:00 AM77 °FPartly sunny.10 mph79%29.86 "HgN/A
7:00 AM75 °FPartly sunny.5 mph78%29.86 "HgN/A
6:00 AM75 °FPartly sunny.7 mph78%29.86 "HgN/A
5:00 AM75 °FPartly cloudy.8 mph78%29.83 "HgN/A
4:00 AM73 °FPassing clouds.9 mph83%29.83 "HgN/A
3:00 AM75 °FPassing clouds.9 mph78%29.83 "HgN/A
2:00 AM75 °FPassing clouds.10 mph78%29.83 "HgN/A
1:00 AM75 °FPassing clouds.9 mph78%29.86 "HgN/A
12:00 AM73 °FPassing clouds.6 mph83%29.89 "HgN/A
11:00 PM
Oct 20
75 °FPassing clouds.10 mph78%29.89 "HgN/A
Weather by CustomWeather, © 2014

See weather overviewHow to use our weather pages